Weather History for PANT - January, 2014

Change the Weather History Date:

Tuesday, January 14, 2014

  Actual Average Record
Temperature  
Mean Temperature 45 °F 37 °F  
Max Temperature 46 °F 42 °F 61 °F (1981)
Min Temperature 43 °F 32 °F 7 °F (1971)
Degree Days  
Heating Degree Days 20 28  
Month to date heating degree days 384 392  
Since 1 July heating degree days 3097 3303  
Cooling Degree Days 0    
Month to date cooling degree days 0  
Year to date cooling degree days 0  
Moisture  
Dew Point 43 °F    
Average Humidity 0    
Maximum Humidity 0    
Minimum Humidity 0    
Precipitation  
Precipitation 2.10 in 0.35 in 2.99 in (1972)
Month to date precipitation 6.07 4.89  
Year to date precipitation 6.07 4.89  
Snow  
Snow 0.00 in 0.20 in 6.20 in (2005)
Month to date snowfall 1.0 3.6  
Since 1 July snowfall 10.1 15.3  
Snow Depth 0.00 in    
Sea Level Pressure  
Sea Level Pressure 29.98 in    
Wind  
Wind Speed 18 mph (South)    
Max Wind Speed 30 mph    
Max Gust Speed 49 mph    
Visibility 6 miles    
Events Rain    
T = Trace of Precipitation, MM = Missing Value Source: NWS Daily Summary

Daily Weather History Graph

Daily Weather History Graph

Search for Another Location

Airport or City:

Trip Planner

Search our weather history database for the weather conditions in past years. The results will help you decide how hot, cold, wet, or windy it might be!

Date:

Astronomy

Jan. 14, 2014 Rise Set
Actual Time 8:02 AM AKST 3:48 PM AKST
Civil Twilight 7:19 AM AKST 4:31 PM AKST
Nautical Twilight 6:33 AM AKST 5:17 PM AKST
Astronomical Twilight 5:50 AM AKST 6:01 PM AKST
Moon 3:05 PM AKST (1/14) 6:37 AM AKST (1/14)
Length of Visible Light 9h 11m
Length of Day
7h 45m
Waxing Gibbous, 98% of the Moon is Illuminated
Jan 14
Waxing Gibbous
Jan 15
Full
Jan 23
Last Quarter
Jan 30
New
Feb 6
First Quarter

Hourly Weather History & Observations

Time (AKST) Temp. Windchill Dew Point Humidity Pressure Visibility Wind Dir Wind Speed Gust Speed Precip Events Conditions
12:31 AM 44.1 °F 35.9 °F 44.1 °F 100% 30.07 in 6.0 mi SSE 19.6 mph 33.4 mph 0.00 in Rain Light Rain
12:53 AM 44.1 °F 35.9 °F 44.1 °F 100% 30.06 in 5.0 mi SSE 19.6 mph 34.5 mph 0.00 in Rain Light Rain
1:51 AM 44.6 °F 37.2 °F 44.6 °F 100% 30.05 in 4.0 mi SSE 17.3 mph 29.9 mph 0.10 in Rain Rain
1:53 AM 44.1 °F 36.2 °F 44.1 °F 100% 30.06 in 4.0 mi SSE 18.4 mph 29.9 mph 0.12 in Rain Rain
2:22 AM 44.1 °F 35.7 °F 44.1 °F 100% 30.04 in 5.0 mi SSE 20.7 mph 36.8 mph 0.05 in Rain Light Rain
2:35 AM 44.1 °F 35.4 °F 44.1 °F 100% 30.03 in 5.0 mi SSE 21.9 mph 36.8 mph 0.08 in Rain Light Rain
2:53 AM 44.1 °F 35.9 °F 44.1 °F 100% 30.03 in 6.0 mi SSE 19.6 mph 34.5 mph 0.10 in Rain Light Rain
3:24 AM 44.1 °F 35.4 °F 44.1 °F 100% 30.01 in 4.0 mi SSE 21.9 mph 38.0 mph 0.03 in Rain Light Rain
3:53 AM 44.1 °F 35.0 °F 44.1 °F 100% 30.00 in 5.0 mi SSE 24.2 mph 40.3 mph 0.05 in Rain Light Rain
4:23 AM 44.1 °F 35.2 °F 44.1 °F 100% 29.97 in 3.0 mi SSE 23.0 mph 39.1 mph 0.07 in Rain Rain
4:53 AM 44.1 °F 34.8 °F 44.1 °F 100% 29.97 in 6.0 mi SSE 25.3 mph 39.1 mph 0.11 in Rain Light Rain
5:53 AM 44.1 °F 35.2 °F 44.1 °F 100% 29.92 in 4.0 mi SSE 23.0 mph 36.8 mph 0.07 in Rain Light Rain
6:53 AM 44.1 °F 35.0 °F 44.1 °F 100% 29.89 in 4.0 mi SSE 24.2 mph 42.6 mph 0.08 in Rain Light Rain
7:53 AM 44.1 °F 35.9 °F 44.1 °F 100% 29.89 in 2.5 mi SSE 19.6 mph 39.1 mph 0.28 in Rain Heavy Rain
8:14 AM 44.1 °F 35.4 °F 44.1 °F 100% 29.87 in 3.0 mi SSE 21.9 mph 34.5 mph 0.12 in Rain Heavy Rain
8:22 AM 44.1 °F 35.2 °F 44.1 °F 100% 29.87 in 2.5 mi SSE 23.0 mph 39.1 mph 0.16 in Rain Rain
8:32 AM 44.1 °F 35.4 °F 44.1 °F 100% 29.86 in 3.0 mi SSE 21.9 mph 34.5 mph 0.20 in Rain Rain
8:44 AM 44.1 °F 35.2 °F 44.1 °F 100% 29.86 in 2.5 mi SSE 23.0 mph 38.0 mph 0.24 in Rain Rain
8:53 AM 44.1 °F 35.7 °F 44.1 °F 100% 29.86 in 2.5 mi SSE 20.7 mph 38.0 mph 0.29 in Rain Rain
9:32 AM 45.0 °F 36.4 °F 45.0 °F 100% 29.83 in 3.0 mi SSE 23.0 mph 42.6 mph 0.15 in Rain Rain
9:51 AM 44.6 °F 36.6 °F 44.6 °F 100% 29.84 in 2.5 mi SSE 19.6 mph 40.3 mph 0.22 in Rain Rain
9:53 AM 45.0 °F 36.9 °F 45.0 °F 100% 29.84 in 2.5 mi SSE 20.7 mph 40.3 mph 0.25 in Rain Rain
10:53 AM 45.0 °F 36.9 °F 45.0 °F 100% 29.81 in 2.5 mi South 20.7 mph 41.4 mph 0.15 in Rain Rain
11:53 AM 45.0 °F 36.4 °F 45.0 °F 100% 29.81 in 2.0 mi South 23.0 mph 39.1 mph 0.14 in Rain Rain
12:17 PM 45.0 °F 36.4 °F 45.0 °F 100% 29.79 in 1.8 mi South 23.0 mph 35.7 mph 0.06 in Rain Rain
12:53 PM 44.1 °F 36.2 °F 44.1 °F 100% 29.79 in 1.8 mi South 18.4 mph 33.4 mph 0.23 in Rain Rain
1:43 PM 45.0 °F 39.3 °F 45.0 °F 100% 29.84 in 5.0 mi South 11.5 mph 25.3 mph 0.18 in Rain Light Rain
1:53 PM 45.0 °F 39.7 °F 45.0 °F 100% 29.85 in 6.0 mi SSW 10.4 mph 21.9 mph 0.19 in Rain Light Rain
2:53 PM 44.1 °F 39.5 °F 44.1 °F 100% 29.92 in 10.0 mi WSW 8.1 mph 17.3 mph 0.04 in Rain Light Rain
3:53 PM 43.0 °F 37.2 °F 41.0 °F 93% 29.98 in 10.0 mi West 10.4 mph 18.4 mph 0.00 in   Mostly Cloudy
4:34 PM 43.0 °F 38.2 °F 43.0 °F 100% 30.01 in 10.0 mi SW 8.1 mph - 0.00 in Rain Light Rain
4:44 PM 42.1 °F 37.7 °F 42.1 °F 100% 30.01 in 10.0 mi Variable 6.9 mph - 0.01 in Rain Light Rain
4:53 PM 43.0 °F 38.2 °F 43.0 °F 100% 30.02 in 10.0 mi SW 8.1 mph - 0.01 in Rain Light Rain
5:27 PM 42.1 °F 37.1 °F 42.1 °F 100% 30.03 in 10.0 mi WSW 8.1 mph - 0.00 in   Scattered Clouds
5:53 PM 42.1 °F 36.6 °F 42.1 °F 100% 30.06 in 10.0 mi WSW 9.2 mph - 0.00 in   Clear
6:53 PM 42.1 °F 39.2 °F 39.9 °F 92% 30.11 in 10.0 mi Variable 4.6 mph - N/A   Partly Cloudy
7:53 PM 42.1 °F 37.1 °F 39.0 °F 89% 30.18 in 10.0 mi WSW 8.1 mph - N/A   Clear
8:53 PM 41.0 °F 36.4 °F 37.0 °F 86% 30.23 in 10.0 mi WSW 6.9 mph - N/A   Clear
9:53 PM 39.9 °F 37.8 °F 37.0 °F 89% 30.28 in 10.0 mi Variable 3.5 mph - N/A   Clear
10:53 PM 37.0 °F - 37.0 °F 100% 30.32 in 10.0 mi Calm Calm - N/A   Clear
11:53 PM 39.0 °F 36.8 °F 37.9 °F 96% 30.35 in 10.0 mi SW 3.5 mph - N/A   Clear